Other Public Products
Issued by NWS Charleston, SC

Current Version | Previous Version | Text Only | Print | Product List | Glossary Off
Versions: 1 2 3 4 5 6 7 8 9 10 11 12 13 14 15 16 17 18 19 20 21 22 23 24 25 26 27 28 29 30 31 32 33 34 35 36 37 38 39 40 41 42 43 44 45 46 47 48 49 50

000
FPUS82 KCHS 262327
OPUCHS

TEST...KCHS/KSAV Gateway Observations...TEST
National Weather Service Charleston SC
700 PM EDT SAT MAY 26 2018

NOTE: "fair" indicates few or no clouds below 12,000 feet with no
significant weather and/or obstructions to visibility.

SCZ050-WAZ558-NCZ071-TXZ119-213-PAZ071-DCZ001-FLZ074-172-MI076-
NYZ176-178-MAZ016-IL014-TNZ027-NJZ106-GAZ044-MD014-270000-

...Gateway Observations for Charleston International...

CITY           SKY/WX    TMP DP  RH WIND       PRES   REMARKS
Chas Airport   PTSUNNY   80  68  66 S13       29.94S
Seattle        CLOUDY    66  43  43 W5        30.19R
Charlotte      PTSUNNY   82  73  74 SW9       29.90S
Dallas DFW     MOSUNNY   96  64  34 S8        29.72F HX  98
Dallas Love    MOSUNNY   95  67  39 SE10      29.73F HX  99
Philladelphia  CLOUDY    78  67  68 SE8       29.81S THUNDER
Wash National  CLOUDY    84  70  62 SW15G22   29.84S
Baltimore      LGT RAIN  76  73  91 W3        29.83R
Miami          LGT RAIN  75  74  96 E13       29.85F
Detroit        FAIR      77  62  59 SE10      29.79R
Newark         FAIR      86  63  45 SW8       29.78R
Laguardia      PTSUNNY   85  66  53 SE12      29.79R
J F K          PTSUNNY   73  67  81 CALM      29.81R
Boston Logan   CLOUDY    67  56  67 NE15      29.82R
Ft. Lauderdale LGT RAIN  76  75  97 SE21      29.85F
Chicago O`Hare FAIR      89  59  36 W8        29.72F
Chicago Midway FAIR      86  60  41 E9        29.73S
Houston Bush   FAIR      93  71  48 CALM      29.74F HX 100
Houston Hobby  PTSUNNY   89  73  59 S12       29.74F THUNDER HX  97
Nashville      FAIR      79  69  71 S3        29.85F
Atlanta        PTSUNNY   82  66  58 S7        29.90S

$$

GAZ044-118-TXZ119-213-NCZ071-DCZ001-MDZ014-506-PAZ021-071-NJZ106-
NYZ176-178-MAZ106-OHZ011-021-055-MIZ076-KYZ091-ILZ014-INZ047-
MNZ060-ONZ431-270000-

...Gateway Observations for Savannah International...

CITY           SKY/WX    TMP DP  RH WIND       PRES   REMARKS
Savannah Arpt  PTSUNNY   81  68  64 S16       29.93S
Atlanta        PTSUNNY   82  66  58 S7        29.90S
Charlotte      PTSUNNY   82  73  74 SW9       29.90S
Dallas DFW     MOSUNNY   96  64  34 S8        29.72F HX  98
Houston Bush   FAIR      93  71  48 CALM      29.74F HX 100
Wash National  CLOUDY    84  70  62 SW15G22   29.84S
Wash Dulles    CLOUDY    80  74  81 S7        29.84S
Baltimore      LGT RAIN  76  73  91 W3        29.83R
Philadelphia   CLOUDY    78  67  68 SE8       29.81S THUNDER
Newark         FAIR      86  63  45 SW8       29.78R
Laguardia      PTSUNNY   85  66  53 SE12      29.79R
J F K          PTSUNNY   73  67  81 CALM      29.81R
Boston         CLOUDY    67  56  67 NE15      29.82R
Pittsburg      PTSUNNY   77  64  64 S6        29.85R
Akron          CLOUDY    73  66  78 SE10      29.84R THUNDER
Cleveland      LGT RAIN  70  64  81 CALM      29.82S
Cincinnati     PTSUNNY   76  67  73 SW6       29.80F THUNDER
Columbus       LGT RAIN  71  69  95 MISG      29.82S
Detroit        FAIR      77  62  59 SE10      29.79R
Chicago O`Hare FAIR      89  59  36 W8        29.72F
Minneapolis    FAIR      93  55  27 SW10      29.69S HX  91
Indianapolis   PTSUNNY   86  64  47 W10       29.77S
Toronto Canada PTSUNNY   73  63  68 NE8       29.81R

$$




USA.gov is the U.S. government's official web portal to all federal, state and local government web resources and services.